Year,Month,Day,Hour,Minute,Value (Times are PST for temperature in C)
2006,09,16,00,00,7.40
2006,09,16,00,01,7.40
2006,09,16,00,02,7.30
2006,09,16,00,03,7.30
2006,09,16,00,04,7.30
2006,09,16,00,05,7.30
2006,09,16,00,06,7.30
2006,09,16,00,07,7.30
2006,09,16,00,08,7.30
2006,09,16,00,09,7.30
2006,09,16,00,10,7.30
2006,09,16,00,11,7.30
2006,09,16,00,12,7.30
2006,09,16,00,13,7.30
2006,09,16,00,14,7.30
2006,09,16,00,15,7.30
2006,09,16,00,16,7.30
2006,09,16,00,17,7.30
2006,09,16,00,18,7.40
2006,09,16,00,19,7.40
2006,09,16,00,20,7.50
2006,09,16,00,21,7.50
2006,09,16,00,22,7.60
2006,09,16,00,23,7.60
2006,09,16,00,24,7.60
2006,09,16,00,25,7.70
2006,09,16,00,26,7.70
2006,09,16,00,27,7.70
2006,09,16,00,28,7.70
2006,09,16,00,29,7.70
2006,09,16,00,30,7.70
2006,09,16,00,31,7.70
2006,09,16,00,32,7.60
2006,09,16,00,33,7.60
2006,09,16,00,34,7.60
2006,09,16,00,35,7.60
2006,09,16,00,36,7.60
2006,09,16,00,37,7.60
2006,09,16,00,38,7.60
2006,09,16,00,39,7.60
2006,09,16,00,40,7.60
2006,09,16,00,41,7.60
2006,09,16,00,42,7.60
2006,09,16,00,43,7.60
2006,09,16,00,44,7.60
2006,09,16,00,45,7.60
2006,09,16,00,46,7.60
2006,09,16,00,47,7.60
2006,09,16,00,48,7.60
2006,09,16,00,49,7.60
2006,09,16,00,50,7.60
2006,09,16,00,51,7.60
2006,09,16,00,52,7.60
2006,09,16,00,53,7.60
2006,09,16,00,54,7.60
2006,09,16,00,55,7.60
2006,09,16,00,56,7.60
2006,09,16,00,57,7.60
2006,09,16,00,58,7.60
2006,09,16,00,59,7.60
2006,09,16,01,00,7.60
2006,09,16,01,01,7.60
2006,09,16,01,02,7.50
2006,09,16,01,03,7.50
2006,09,16,01,04,7.50
2006,09,16,01,05,7.50
2006,09,16,01,06,7.50
2006,09,16,01,07,7.40
2006,09,16,01,08,7.40
2006,09,16,01,09,7.30
2006,09,16,01,10,7.30
2006,09,16,01,11,7.30
2006,09,16,01,12,7.30
2006,09,16,01,13,7.20
2006,09,16,01,14,7.20
2006,09,16,01,15,7.10
2006,09,16,01,16,7.10
2006,09,16,01,17,7.10
2006,09,16,01,18,7.10
2006,09,16,01,19,7.10
2006,09,16,01,20,7.10
2006,09,16,01,21,7.10
2006,09,16,01,22,7.10
2006,09,16,01,23,7.10
2006,09,16,01,24,7.10
2006,09,16,01,25,7.10
2006,09,16,01,26,7.10
2006,09,16,01,27,7.10
2006,09,16,01,28,7.00
2006,09,16,01,29,7.00
2006,09,16,01,30,7.00
2006,09,16,01,31,7.00
2006,09,16,01,32,7.00
2006,09,16,01,33,7.00
2006,09,16,01,34,7.00
2006,09,16,01,35,7.00
2006,09,16,01,36,7.00
2006,09,16,01,37,7.00
2006,09,16,01,38,6.90
2006,09,16,01,39,6.90
2006,09,16,01,40,6.80
2006,09,16,01,41,6.80
2006,09,16,01,42,6.80
2006,09,16,01,43,6.80
2006,09,16,01,44,6.80
2006,09,16,01,45,6.80
2006,09,16,01,46,6.80
2006,09,16,01,47,6.80
2006,09,16,01,48,6.70
2006,09,16,01,49,6.70
2006,09,16,01,50,6.70
2006,09,16,01,51,6.70
2006,09,16,01,52,6.70
2006,09,16,01,53,6.70
2006,09,16,01,54,6.70
2006,09,16,01,55,6.70
2006,09,16,01,56,6.70
2006,09,16,01,57,6.70
2006,09,16,01,58,6.70
2006,09,16,01,59,6.70
2006,09,16,02,00,6.70
2006,09,16,02,01,6.70
2006,09,16,02,02,6.70
2006,09,16,02,03,6.70
2006,09,16,02,04,6.70
2006,09,16,02,05,6.70
2006,09,16,02,06,6.70
2006,09,16,02,07,6.70
2006,09,16,02,08,6.70
2006,09,16,02,09,6.70
2006,09,16,02,10,6.60
2006,09,16,02,11,6.60
2006,09,16,02,12,6.60
2006,09,16,02,13,6.60
2006,09,16,02,14,6.60
2006,09,16,02,15,6.60
2006,09,16,02,16,6.60
2006,09,16,02,17,6.60
2006,09,16,02,18,6.60
2006,09,16,02,19,6.60
2006,09,16,02,20,6.60
2006,09,16,02,21,6.60
2006,09,16,02,22,6.60
2006,09,16,02,23,6.60
2006,09,16,02,24,6.60
2006,09,16,02,25,6.60
2006,09,16,02,26,6.60
2006,09,16,02,27,6.60
2006,09,16,02,28,6.60
2006,09,16,02,29,6.60
2006,09,16,02,30,6.60
2006,09,16,02,31,6.60
2006,09,16,02,32,6.60
2006,09,16,02,33,6.60
2006,09,16,02,34,6.60
2006,09,16,02,35,6.50
2006,09,16,02,36,6.40
2006,09,16,02,37,6.40
2006,09,16,02,38,6.50
2006,09,16,02,39,6.40
2006,09,16,02,40,6.40
2006,09,16,02,41,6.40
2006,09,16,02,42,6.50
2006,09,16,02,43,6.60
2006,09,16,02,44,6.60
2006,09,16,02,45,6.60
2006,09,16,02,46,6.60
2006,09,16,02,47,6.60
2006,09,16,02,48,6.60
2006,09,16,02,49,6.60
2006,09,16,02,50,6.60
2006,09,16,02,51,6.60
2006,09,16,02,52,6.60
2006,09,16,02,53,6.60
2006,09,16,02,54,6.60
2006,09,16,02,55,6.60
2006,09,16,02,56,6.60
2006,09,16,02,57,6.60
2006,09,16,02,58,6.60
2006,09,16,02,59,6.60
2006,09,16,03,00,6.50
2006,09,16,03,01,6.40
2006,09,16,03,02,6.40
2006,09,16,03,03,6.50
2006,09,16,03,04,6.60
2006,09,16,03,05,6.60
2006,09,16,03,06,6.60
2006,09,16,03,07,6.60
2006,09,16,03,08,6.60
2006,09,16,03,09,6.60
2006,09,16,03,10,6.60
2006,09,16,03,11,6.60
2006,09,16,03,12,6.60
2006,09,16,03,13,6.60
2006,09,16,03,14,6.60
2006,09,16,03,15,6.60
2006,09,16,03,16,6.60
2006,09,16,03,17,6.60
2006,09,16,03,18,6.60
2006,09,16,03,19,6.60
2006,09,16,03,20,6.60
2006,09,16,03,21,6.60
2006,09,16,03,22,6.60
2006,09,16,03,23,6.60
2006,09,16,03,24,6.60
2006,09,16,03,25,6.60
2006,09,16,03,26,6.60
2006,09,16,03,27,6.60
2006,09,16,03,28,6.60
2006,09,16,03,29,6.60
2006,09,16,03,30,6.60
2006,09,16,03,31,6.60
2006,09,16,03,32,6.60
2006,09,16,03,33,6.60
2006,09,16,03,34,6.70
2006,09,16,03,35,6.70
2006,09,16,03,36,6.70
2006,09,16,03,37,6.70
2006,09,16,03,38,6.70
2006,09,16,03,39,6.70
2006,09,16,03,40,6.70
2006,09,16,03,41,6.70
2006,09,16,03,42,6.70
2006,09,16,03,43,6.70
2006,09,16,03,44,6.70
2006,09,16,03,45,6.70
2006,09,16,03,46,6.60
2006,09,16,03,47,6.60
2006,09,16,03,48,6.60
2006,09,16,03,49,6.60
2006,09,16,03,50,6.60
2006,09,16,03,51,6.60
2006,09,16,03,52,6.60
2006,09,16,03,53,6.60
2006,09,16,03,54,6.60
2006,09,16,03,55,6.60
2006,09,16,03,56,6.60
2006,09,16,03,57,6.60
2006,09,16,03,58,6.60
2006,09,16,03,59,6.60
2006,09,16,04,00,6.60
2006,09,16,04,01,6.60
2006,09,16,04,02,6.50
2006,09,16,04,03,6.40
2006,09,16,04,04,6.40
2006,09,16,04,05,6.40
2006,09,16,04,06,6.40
2006,09,16,04,07,6.40
2006,09,16,04,08,6.40
2006,09,16,04,09,6.40
2006,09,16,04,10,6.40
2006,09,16,04,11,6.40
2006,09,16,04,12,6.40
2006,09,16,04,13,6.40
2006,09,16,04,14,6.40
2006,09,16,04,15,6.40
2006,09,16,04,16,6.40
2006,09,16,04,17,6.40
2006,09,16,04,18,6.40
2006,09,16,04,19,6.40
2006,09,16,04,20,6.40
2006,09,16,04,21,6.40
2006,09,16,04,22,6.40
2006,09,16,04,23,6.40
2006,09,16,04,24,6.30
2006,09,16,04,25,6.40
2006,09,16,04,26,6.40
2006,09,16,04,27,6.30
2006,09,16,04,28,6.30
2006,09,16,04,29,6.30
2006,09,16,04,30,6.30
2006,09,16,04,31,6.30
2006,09,16,04,32,6.30
2006,09,16,04,33,6.30
2006,09,16,04,34,6.30
2006,09,16,04,35,6.30
2006,09,16,04,36,6.30
2006,09,16,04,37,6.30
2006,09,16,04,38,6.20
2006,09,16,04,39,6.20
2006,09,16,04,40,6.20
2006,09,16,04,41,6.20
2006,09,16,04,42,6.20
2006,09,16,04,43,6.20
2006,09,16,04,44,6.20
2006,09,16,04,45,6.20
2006,09,16,04,46,6.20
2006,09,16,04,47,6.20
2006,09,16,04,48,6.20
2006,09,16,04,49,6.10
2006,09,16,04,50,6.20
2006,09,16,04,51,6.20
2006,09,16,04,52,6.20
2006,09,16,04,53,6.20
2006,09,16,04,54,6.20
2006,09,16,04,55,6.20
2006,09,16,04,56,6.20
2006,09,16,04,57,6.10
2006,09,16,04,58,6.10
2006,09,16,04,59,6.10
2006,09,16,05,00,6.10
2006,09,16,05,01,6.10
2006,09,16,05,02,6.10
2006,09,16,05,03,6.00
2006,09,16,05,04,6.00
2006,09,16,05,05,6.00
2006,09,16,05,06,6.00
2006,09,16,05,07,6.00
2006,09,16,05,08,5.90
2006,09,16,05,09,5.90
2006,09,16,05,10,5.90
2006,09,16,05,11,5.90
2006,09,16,05,12,5.90
2006,09,16,05,13,5.90
2006,09,16,05,14,5.90
2006,09,16,05,15,5.90
2006,09,16,05,16,5.90
2006,09,16,05,17,5.90
2006,09,16,05,18,5.90
2006,09,16,05,19,5.90
2006,09,16,05,20,5.90
2006,09,16,05,21,5.90
2006,09,16,05,22,5.90
2006,09,16,05,23,5.90
2006,09,16,05,24,5.90
2006,09,16,05,25,5.90
2006,09,16,05,26,5.90
2006,09,16,05,27,5.90
2006,09,16,05,28,6.00
2006,09,16,05,29,6.00
2006,09,16,05,30,6.00
2006,09,16,05,31,6.00
2006,09,16,05,32,6.00
2006,09,16,05,33,6.00
2006,09,16,05,34,6.00
2006,09,16,05,35,6.10
2006,09,16,05,36,6.10
2006,09,16,05,37,6.10
2006,09,16,05,38,6.10
2006,09,16,05,39,6.00
2006,09,16,05,40,6.00
2006,09,16,05,41,6.00
2006,09,16,05,42,6.00
2006,09,16,05,43,5.90
2006,09,16,05,44,5.90
2006,09,16,05,45,5.90
2006,09,16,05,46,5.90
2006,09,16,05,47,5.80
2006,09,16,05,48,5.80
2006,09,16,05,49,5.80
2006,09,16,05,50,5.80
2006,09,16,05,51,5.80
2006,09,16,05,52,5.80
2006,09,16,05,53,5.80
2006,09,16,05,54,5.90
2006,09,16,05,55,5.90
2006,09,16,05,56,5.90
2006,09,16,05,57,5.90
2006,09,16,05,58,5.90
2006,09,16,05,59,6.00
2006,09,16,06,00,6.00
2006,09,16,06,01,6.00
2006,09,16,06,02,6.00
2006,09,16,06,03,6.00
2006,09,16,06,04,6.00
2006,09,16,06,05,5.90
2006,09,16,06,06,5.90
2006,09,16,06,07,5.90
2006,09,16,06,08,5.80
2006,09,16,06,09,5.80
2006,09,16,06,10,5.80
2006,09,16,06,11,5.70
2006,09,16,06,12,5.70
2006,09,16,06,13,5.70
2006,09,16,06,14,5.70
2006,09,16,06,15,5.70
2006,09,16,06,16,5.70
2006,09,16,06,17,5.70
2006,09,16,06,18,5.60
2006,09,16,06,19,5.60
2006,09,16,06,20,5.60
2006,09,16,06,21,5.60
2006,09,16,06,22,5.60
2006,09,16,06,23,5.60
2006,09,16,06,24,5.60
2006,09,16,06,25,5.60
2006,09,16,06,26,5.60
2006,09,16,06,27,5.60
2006,09,16,06,28,5.60
2006,09,16,06,29,5.60
2006,09,16,06,30,5.60
2006,09,16,06,31,5.60
2006,09,16,06,32,5.70
2006,09,16,06,33,5.70
2006,09,16,06,34,5.70
2006,09,16,06,35,5.70
2006,09,16,06,36,5.70
2006,09,16,06,37,5.60
2006,09,16,06,38,5.60
2006,09,16,06,39,5.60
2006,09,16,06,40,5.50
2006,09,16,06,41,5.50
2006,09,16,06,42,5.50
2006,09,16,06,43,5.50
2006,09,16,06,44,5.50
2006,09,16,06,45,5.50
2006,09,16,06,46,5.50
2006,09,16,06,47,5.40
2006,09,16,06,48,5.40
2006,09,16,06,49,5.40
2006,09,16,06,50,5.40
2006,09,16,06,51,5.40
2006,09,16,06,52,5.40
2006,09,16,06,53,5.40
2006,09,16,06,54,5.40
2006,09,16,06,55,5.40
2006,09,16,06,56,5.40
2006,09,16,06,57,5.40
2006,09,16,06,58,5.40
2006,09,16,06,59,5.40
2006,09,16,07,00,5.40
2006,09,16,07,01,5.50
2006,09,16,07,02,5.50
2006,09,16,07,03,5.50
2006,09,16,07,04,5.50
2006,09,16,07,05,5.50
2006,09,16,07,06,5.50
2006,09,16,07,07,5.50
2006,09,16,07,08,5.50
2006,09,16,07,09,5.50
2006,09,16,07,10,5.50
2006,09,16,07,11,5.50
2006,09,16,07,12,5.50
2006,09,16,07,13,5.50
2006,09,16,07,14,5.50
2006,09,16,07,15,5.50
2006,09,16,07,16,5.50
2006,09,16,07,17,5.40
2006,09,16,07,18,5.40
2006,09,16,07,19,5.40
2006,09,16,07,20,5.40
2006,09,16,07,21,5.40
2006,09,16,07,22,5.30
2006,09,16,07,23,5.30
2006,09,16,07,24,5.30
2006,09,16,07,25,5.30
2006,09,16,07,26,5.30
2006,09,16,07,27,5.30
2006,09,16,07,28,5.30
2006,09,16,07,29,5.30
2006,09,16,07,30,5.30
2006,09,16,07,31,5.30
2006,09,16,07,32,5.30
2006,09,16,07,33,5.40
2006,09,16,07,34,5.40
2006,09,16,07,35,5.50
2006,09,16,07,36,5.50
2006,09,16,07,37,5.60
2006,09,16,07,38,5.70
2006,09,16,07,39,5.70
2006,09,16,07,40,5.70
2006,09,16,07,41,5.80
2006,09,16,07,42,5.80
2006,09,16,07,43,5.90
2006,09,16,07,44,5.90
2006,09,16,07,45,5.90
2006,09,16,07,46,6.00
2006,09,16,07,47,6.00
2006,09,16,07,48,6.00
2006,09,16,07,49,6.10
2006,09,16,07,50,6.20
2006,09,16,07,51,6.20
2006,09,16,07,52,6.20
2006,09,16,07,53,6.30
2006,09,16,07,54,6.30
2006,09,16,07,55,6.30
2006,09,16,07,56,6.30
2006,09,16,07,57,6.40
2006,09,16,07,58,6.50
2006,09,16,07,59,6.60
2006,09,16,08,00,6.70
2006,09,16,08,01,6.80
2006,09,16,08,02,6.90
2006,09,16,08,03,7.00
2006,09,16,08,04,7.10
2006,09,16,08,05,7.20
2006,09,16,08,06,7.30
2006,09,16,08,07,7.30
2006,09,16,08,08,7.40
2006,09,16,08,09,7.50
2006,09,16,08,10,7.50
2006,09,16,08,11,7.60
2006,09,16,08,12,7.70
2006,09,16,08,13,7.70
2006,09,16,08,14,7.80
2006,09,16,08,15,7.80
2006,09,16,08,16,7.80
2006,09,16,08,17,7.90
2006,09,16,08,18,8.00
2006,09,16,08,19,8.10
2006,09,16,08,20,8.20
2006,09,16,08,21,8.20
2006,09,16,08,22,8.20
2006,09,16,08,23,8.30
2006,09,16,08,24,8.40
2006,09,16,08,25,8.50
2006,09,16,08,26,8.60
2006,09,16,08,27,8.70
2006,09,16,08,28,8.90
2006,09,16,08,29,8.90
2006,09,16,08,30,9.00
2006,09,16,08,31,9.10
2006,09,16,08,32,9.20
2006,09,16,08,33,9.30
2006,09,16,08,34,9.40
2006,09,16,08,35,9.50
2006,09,16,08,36,9.50
2006,09,16,08,37,9.50
2006,09,16,08,38,9.50
2006,09,16,08,39,9.50
2006,09,16,08,40,9.50
2006,09,16,08,41,9.50
2006,09,16,08,42,9.50
2006,09,16,08,43,9.40
2006,09,16,08,44,9.40
2006,09,16,08,45,9.50
2006,09,16,08,46,9.50
2006,09,16,08,47,9.50
2006,09,16,08,48,9.60
2006,09,16,08,49,9.60
2006,09,16,08,50,9.70
2006,09,16,08,51,9.70
2006,09,16,08,52,9.80
2006,09,16,08,53,9.80
2006,09,16,08,54,9.90
2006,09,16,08,55,9.90
2006,09,16,08,56,10.00
2006,09,16,08,57,10.10
2006,09,16,08,58,10.20
2006,09,16,08,59,10.20
2006,09,16,09,00,10.30
2006,09,16,09,01,10.40
2006,09,16,09,02,10.50
2006,09,16,09,03,10.60
2006,09,16,09,04,10.60
2006,09,16,09,05,10.70
2006,09,16,09,06,10.80
2006,09,16,09,07,10.90
2006,09,16,09,08,11.00
2006,09,16,09,09,11.10
2006,09,16,09,10,11.20
2006,09,16,09,11,11.20
2006,09,16,09,12,11.30
2006,09,16,09,13,11.40
2006,09,16,09,14,11.50
2006,09,16,09,15,11.60
2006,09,16,09,16,11.70
2006,09,16,09,17,11.70
2006,09,16,09,18,11.80
2006,09,16,09,19,11.80
2006,09,16,09,20,11.80
2006,09,16,09,21,11.90
2006,09,16,09,22,12.00
2006,09,16,09,23,12.10
2006,09,16,09,24,12.10
2006,09,16,09,25,12.20
2006,09,16,09,26,12.30
2006,09,16,09,27,12.30
2006,09,16,09,28,12.40
2006,09,16,09,29,12.40
2006,09,16,09,30,12.50
2006,09,16,09,31,12.50
2006,09,16,09,32,12.60
2006,09,16,09,33,12.70
2006,09,16,09,34,12.80
2006,09,16,09,35,12.90
2006,09,16,09,36,12.90
2006,09,16,09,37,13.00
2006,09,16,09,38,13.10
2006,09,16,09,39,13.20
2006,09,16,09,40,13.20
2006,09,16,09,41,13.30
2006,09,16,09,42,13.30
2006,09,16,09,43,13.30
2006,09,16,09,44,13.40
2006,09,16,09,45,13.50
2006,09,16,09,46,13.60
2006,09,16,09,47,13.60
2006,09,16,09,48,13.70
2006,09,16,09,49,13.80
2006,09,16,09,50,13.90
2006,09,16,09,51,13.90
2006,09,16,09,52,14.00
2006,09,16,09,53,14.00
2006,09,16,09,54,14.10
2006,09,16,09,55,14.20
2006,09,16,09,56,14.30
2006,09,16,09,57,14.40
2006,09,16,09,58,14.50
2006,09,16,09,59,14.60
2006,09,16,10,00,14.70
2006,09,16,10,01,14.80
2006,09,16,10,02,14.90
2006,09,16,10,03,15.00
2006,09,16,10,04,15.10
2006,09,16,10,05,15.10
2006,09,16,10,06,15.20
2006,09,16,10,07,15.30
2006,09,16,10,08,15.30
2006,09,16,10,09,15.30
2006,09,16,10,10,15.30
2006,09,16,10,11,15.40
2006,09,16,10,12,15.50
2006,09,16,10,13,15.50
2006,09,16,10,14,15.60
2006,09,16,10,15,15.60
2006,09,16,10,16,15.70
2006,09,16,10,17,15.70
2006,09,16,10,18,15.80
2006,09,16,10,19,15.90
2006,09,16,10,20,15.90
2006,09,16,10,21,16.00
2006,09,16,10,22,15.90
2006,09,16,10,23,15.60
2006,09,16,10,24,15.30
2006,09,16,10,25,15.00
2006,09,16,10,26,14.90
2006,09,16,10,27,14.80
2006,09,16,10,28,14.70
2006,09,16,10,29,14.70
2006,09,16,10,30,14.80
2006,09,16,10,31,14.80
2006,09,16,10,32,15.00
2006,09,16,10,33,15.10
2006,09,16,10,34,15.30
2006,09,16,10,35,15.40
2006,09,16,10,36,15.50
2006,09,16,10,37,15.60
2006,09,16,10,38,15.70
2006,09,16,10,39,15.70
2006,09,16,10,40,15.80
2006,09,16,10,41,15.90
2006,09,16,10,42,16.10
2006,09,16,10,43,16.10
2006,09,16,10,44,16.20
2006,09,16,10,45,16.20
2006,09,16,10,46,16.20
2006,09,16,10,47,16.30
2006,09,16,10,48,16.30
2006,09,16,10,49,16.40
2006,09,16,10,50,16.40
2006,09,16,10,51,16.40
2006,09,16,10,52,16.40
2006,09,16,10,53,16.40
2006,09,16,10,54,16.60
2006,09,16,10,55,16.50
2006,09,16,10,56,16.60
2006,09,16,10,57,16.50
2006,09,16,10,58,16.40
2006,09,16,10,59,16.20
2006,09,16,11,00,16.10
2006,09,16,11,01,16.10
2006,09,16,11,02,16.10
2006,09,16,11,03,16.00
2006,09,16,11,04,15.90
2006,09,16,11,05,15.90
2006,09,16,11,06,15.80
2006,09,16,11,07,15.80
2006,09,16,11,08,15.80
2006,09,16,11,09,15.80
2006,09,16,11,10,15.80
2006,09,16,11,11,16.00
2006,09,16,11,12,16.00
2006,09,16,11,13,15.90
2006,09,16,11,14,15.90
2006,09,16,11,15,16.00
2006,09,16,11,16,16.10
2006,09,16,11,17,16.10
2006,09,16,11,18,16.10
2006,09,16,11,19,16.10
2006,09,16,11,20,16.10
2006,09,16,11,21,16.00
2006,09,16,11,22,15.90
2006,09,16,11,23,15.90
2006,09,16,11,24,16.00
2006,09,16,11,25,16.10
2006,09,16,11,26,16.10
2006,09,16,11,27,16.20
2006,09,16,11,28,16.20
2006,09,16,11,29,16.20
2006,09,16,11,30,16.20
2006,09,16,11,31,16.20
2006,09,16,11,32,16.20
2006,09,16,11,33,16.10
2006,09,16,11,34,16.20
2006,09,16,11,35,16.20
2006,09,16,11,36,16.20
2006,09,16,11,37,16.20
2006,09,16,11,38,16.20
2006,09,16,11,39,16.30
2006,09,16,11,40,16.30
2006,09,16,11,41,16.30
2006,09,16,11,42,16.30
2006,09,16,11,43,16.30
2006,09,16,11,44,16.30
2006,09,16,11,45,16.30
2006,09,16,11,46,16.40
2006,09,16,11,47,16.40
2006,09,16,11,48,16.40
2006,09,16,11,49,16.60
2006,09,16,11,50,16.70
2006,09,16,11,51,16.80
2006,09,16,11,52,16.90
2006,09,16,11,53,17.10
2006,09,16,11,54,17.10
2006,09,16,11,55,17.20
2006,09,16,11,56,17.20
2006,09,16,11,57,17.20
2006,09,16,11,58,17.30
2006,09,16,11,59,17.30
2006,09,16,12,00,17.30
2006,09,16,12,01,17.30
2006,09,16,12,02,17.30
2006,09,16,12,03,17.40
2006,09,16,12,04,17.50
2006,09,16,12,05,17.50
2006,09,16,12,06,17.60
2006,09,16,12,07,17.60
2006,09,16,12,08,17.60
2006,09,16,12,09,17.60
2006,09,16,12,10,17.60
2006,09,16,12,11,17.60
2006,09,16,12,12,17.60
2006,09,16,12,13,17.60
2006,09,16,12,14,17.70
2006,09,16,12,15,17.80
2006,09,16,12,16,17.90
2006,09,16,12,17,18.00
2006,09,16,12,18,18.10
2006,09,16,12,19,18.10
2006,09,16,12,20,18.10
2006,09,16,12,21,18.10
2006,09,16,12,22,18.20
2006,09,16,12,23,18.10
2006,09,16,12,24,18.10
2006,09,16,12,25,18.00
2006,09,16,12,26,17.90
2006,09,16,12,27,17.90
2006,09,16,12,28,17.90
2006,09,16,12,29,17.90
2006,09,16,12,30,17.90
2006,09,16,12,31,18.00
2006,09,16,12,32,18.10
2006,09,16,12,33,18.10
2006,09,16,12,34,18.10
2006,09,16,12,35,18.00
2006,09,16,12,36,17.90
2006,09,16,12,37,17.90
2006,09,16,12,38,18.00
2006,09,16,12,39,18.00
2006,09,16,12,40,18.00
2006,09,16,12,41,18.10
2006,09,16,12,42,18.20
2006,09,16,12,43,18.20
2006,09,16,12,44,18.10
2006,09,16,12,45,18.00
2006,09,16,12,46,17.90
2006,09,16,12,47,17.90
2006,09,16,12,48,18.00
2006,09,16,12,49,18.10
2006,09,16,12,50,18.00
2006,09,16,12,51,17.90
2006,09,16,12,52,17.90
2006,09,16,12,53,17.90
2006,09,16,12,54,17.90
2006,09,16,12,55,17.90
2006,09,16,12,56,17.90
2006,09,16,12,57,17.90
2006,09,16,12,58,18.10
2006,09,16,12,59,18.10
2006,09,16,13,00,18.10
2006,09,16,13,01,18.10
2006,09,16,13,02,18.10
2006,09,16,13,03,18.10
2006,09,16,13,04,18.10
2006,09,16,13,05,18.10
2006,09,16,13,06,18.00
2006,09,16,13,07,17.90
2006,09,16,13,08,17.90
2006,09,16,13,09,17.80
2006,09,16,13,10,17.70
2006,09,16,13,11,17.80
2006,09,16,13,12,17.80
2006,09,16,13,13,17.90
2006,09,16,13,14,17.90
2006,09,16,13,15,17.90
2006,09,16,13,16,17.80
2006,09,16,13,17,17.70
2006,09,16,13,18,17.70
2006,09,16,13,19,17.70
2006,09,16,13,20,17.70
2006,09,16,13,21,17.80
2006,09,16,13,22,18.00
2006,09,16,13,23,18.10
2006,09,16,13,24,18.00
2006,09,16,13,25,17.90
2006,09,16,13,26,17.90
2006,09,16,13,27,17.90
2006,09,16,13,28,17.90
2006,09,16,13,29,17.90
2006,09,16,13,30,17.90
2006,09,16,13,31,17.80
2006,09,16,13,32,17.80
2006,09,16,13,33,17.60
2006,09,16,13,34,17.50
2006,09,16,13,35,17.50
2006,09,16,13,36,17.50
2006,09,16,13,37,17.60
2006,09,16,13,38,17.70
2006,09,16,13,39,17.80
2006,09,16,13,40,17.90
2006,09,16,13,41,17.90
2006,09,16,13,42,17.90
2006,09,16,13,43,17.90
2006,09,16,13,44,17.70
2006,09,16,13,45,17.70
2006,09,16,13,46,17.60
2006,09,16,13,47,17.50
2006,09,16,13,48,17.50
2006,09,16,13,49,17.40
2006,09,16,13,50,17.30
2006,09,16,13,51,17.40
2006,09,16,13,52,17.40
2006,09,16,13,53,17.40
2006,09,16,13,54,17.50
2006,09,16,13,55,17.50
2006,09,16,13,56,17.50
2006,09,16,13,57,17.50
2006,09,16,13,58,17.50
2006,09,16,13,59,17.60
2006,09,16,14,00,17.80
2006,09,16,14,01,17.80
2006,09,16,14,02,17.90
2006,09,16,14,03,17.90
2006,09,16,14,04,17.90
2006,09,16,14,05,17.90
2006,09,16,14,06,18.10
2006,09,16,14,07,18.20
2006,09,16,14,08,18.10
2006,09,16,14,09,17.90
2006,09,16,14,10,17.90
2006,09,16,14,11,17.70
2006,09,16,14,12,17.60
2006,09,16,14,13,17.70
2006,09,16,14,14,17.70
2006,09,16,14,15,17.80
2006,09,16,14,16,17.90
2006,09,16,14,17,18.10
2006,09,16,14,18,18.20
2006,09,16,14,19,18.10
2006,09,16,14,20,18.10
2006,09,16,14,21,18.20
2006,09,16,14,22,18.20
2006,09,16,14,23,18.20
2006,09,16,14,24,18.20
2006,09,16,14,25,18.10
2006,09,16,14,26,18.10
2006,09,16,14,27,18.10
2006,09,16,14,28,18.20
2006,09,16,14,29,18.30
2006,09,16,14,30,18.40
2006,09,16,14,31,18.40
2006,09,16,14,32,18.30
2006,09,16,14,33,18.20
2006,09,16,14,34,17.90
2006,09,16,14,35,17.80
2006,09,16,14,36,17.80
2006,09,16,14,37,17.80
2006,09,16,14,38,17.80
2006,09,16,14,39,17.60
2006,09,16,14,40,17.70
2006,09,16,14,41,17.80
2006,09,16,14,42,17.90
2006,09,16,14,43,17.90
2006,09,16,14,44,17.80
2006,09,16,14,45,17.80
2006,09,16,14,46,17.80
2006,09,16,14,47,17.80
2006,09,16,14,48,17.90
2006,09,16,14,49,17.90
2006,09,16,14,50,18.10
2006,09,16,14,51,18.20
2006,09,16,14,52,18.20
2006,09,16,14,53,18.20
2006,09,16,14,54,18.20
2006,09,16,14,55,18.20
2006,09,16,14,56,18.30
2006,09,16,14,57,18.30
2006,09,16,14,58,18.20
2006,09,16,14,59,18.10
2006,09,16,15,00,17.90
2006,09,16,15,01,18.00
2006,09,16,15,02,18.10
2006,09,16,15,03,18.20
2006,09,16,15,04,18.20
2006,09,16,15,05,18.20
2006,09,16,15,06,18.10
2006,09,16,15,07,18.00
2006,09,16,15,08,17.90
2006,09,16,15,09,17.90
2006,09,16,15,10,17.80
2006,09,16,15,11,17.70
2006,09,16,15,12,17.60
2006,09,16,15,13,17.40
2006,09,16,15,14,17.30
2006,09,16,15,15,17.20
2006,09,16,15,16,17.20
2006,09,16,15,17,17.30
2006,09,16,15,18,17.20
2006,09,16,15,19,17.20
2006,09,16,15,20,17.10
2006,09,16,15,21,17.20
2006,09,16,15,22,17.00
2006,09,16,15,23,17.00
2006,09,16,15,24,16.90
2006,09,16,15,25,16.80
2006,09,16,15,26,16.70
2006,09,16,15,27,16.70
2006,09,16,15,28,16.80
2006,09,16,15,29,16.90
2006,09,16,15,30,17.00
2006,09,16,15,31,17.10
2006,09,16,15,32,17.20
2006,09,16,15,33,17.30
2006,09,16,15,34,17.30
2006,09,16,15,35,17.30
2006,09,16,15,36,17.30
2006,09,16,15,37,17.30
2006,09,16,15,38,17.20
2006,09,16,15,39,17.20
2006,09,16,15,40,17.30
2006,09,16,15,41,17.30
2006,09,16,15,42,17.40
2006,09,16,15,43,17.50
2006,09,16,15,44,17.60
2006,09,16,15,45,17.50
2006,09,16,15,46,17.40
2006,09,16,15,47,17.40
2006,09,16,15,48,17.50
2006,09,16,15,49,17.50
2006,09,16,15,50,17.50
2006,09,16,15,51,17.40
2006,09,16,15,52,17.40
2006,09,16,15,53,17.40
2006,09,16,15,54,17.50
2006,09,16,15,55,17.50
2006,09,16,15,56,17.50
2006,09,16,15,57,17.50
2006,09,16,15,58,17.50
2006,09,16,15,59,17.60
2006,09,16,16,00,17.70
2006,09,16,16,01,17.80
2006,09,16,16,02,17.80
2006,09,16,16,03,17.80
2006,09,16,16,04,17.70
2006,09,16,16,05,17.60
2006,09,16,16,06,17.50
2006,09,16,16,07,17.50
2006,09,16,16,08,17.50
2006,09,16,16,09,17.50
2006,09,16,16,10,17.60
2006,09,16,16,11,17.60
2006,09,16,16,12,17.60
2006,09,16,16,13,17.60
2006,09,16,16,14,17.50
2006,09,16,16,15,17.50
2006,09,16,16,16,17.40
2006,09,16,16,17,17.40
2006,09,16,16,18,17.50
2006,09,16,16,19,17.50
2006,09,16,16,20,17.50
2006,09,16,16,21,17.60
2006,09,16,16,22,17.60
2006,09,16,16,23,17.60
2006,09,16,16,24,17.60
2006,09,16,16,25,17.60
2006,09,16,16,26,17.60
2006,09,16,16,27,17.60
2006,09,16,16,28,17.70
2006,09,16,16,29,17.70
2006,09,16,16,30,17.70
2006,09,16,16,31,17.70
2006,09,16,16,32,17.80
2006,09,16,16,33,17.90
2006,09,16,16,34,17.90
2006,09,16,16,35,17.80
2006,09,16,16,36,17.80
2006,09,16,16,37,17.70
2006,09,16,16,38,17.60
2006,09,16,16,39,17.60
2006,09,16,16,40,17.50
2006,09,16,16,41,17.50
2006,09,16,16,42,17.50
2006,09,16,16,43,17.50
2006,09,16,16,44,17.50
2006,09,16,16,45,17.60
2006,09,16,16,46,17.60
2006,09,16,16,47,17.60
2006,09,16,16,48,17.50
2006,09,16,16,49,17.40
2006,09,16,16,50,17.30
2006,09,16,16,51,17.30
2006,09,16,16,52,17.30
2006,09,16,16,53,17.30
2006,09,16,16,54,17.30
2006,09,16,16,55,17.30
2006,09,16,16,56,17.30
2006,09,16,16,57,17.20
2006,09,16,16,58,17.20
2006,09,16,16,59,17.30
2006,09,16,17,00,17.30
2006,09,16,17,01,17.30
2006,09,16,17,02,17.30
2006,09,16,17,03,17.20
2006,09,16,17,04,17.00
2006,09,16,17,05,16.90
2006,09,16,17,06,16.90
2006,09,16,17,07,16.80
2006,09,16,17,08,16.70
2006,09,16,17,09,16.70
2006,09,16,17,10,16.80
2006,09,16,17,11,16.80
2006,09,16,17,12,16.90
2006,09,16,17,13,17.00
2006,09,16,17,14,17.00
2006,09,16,17,15,17.00
2006,09,16,17,16,17.00
2006,09,16,17,17,16.90
2006,09,16,17,18,16.90
2006,09,16,17,19,16.90
2006,09,16,17,20,16.80
2006,09,16,17,21,16.70
2006,09,16,17,22,16.70
2006,09,16,17,23,16.70
2006,09,16,17,24,16.60
2006,09,16,17,25,16.60
2006,09,16,17,26,16.60
2006,09,16,17,27,16.60
2006,09,16,17,28,16.50
2006,09,16,17,29,16.40
2006,09,16,17,30,16.40
2006,09,16,17,31,16.40
2006,09,16,17,32,16.30
2006,09,16,17,33,16.20
2006,09,16,17,34,16.20
2006,09,16,17,35,16.10
2006,09,16,17,36,16.10
2006,09,16,17,37,16.00
2006,09,16,17,38,15.90
2006,09,16,17,39,15.90
2006,09,16,17,40,15.80
2006,09,16,17,41,15.80
2006,09,16,17,42,15.80